User: anonymous   Login
Location: Dillon
(41.1766°N, 107.0923°W)
Time: 08:33:11
(UTC+00:00)
Language:

SPROUT - Orbit

View from above orbital plane
View from above orbital plane
View from above satellite
View from above satellite

Ground track
Ground track

The orbit data is extracted from the following two-line orbital elements,

1 39770U 14029E   22178.11343388  .00005381  00000-0  54943-3 0  9998
2 39770  97.9439 295.1106 0009744  59.8621 300.3455 14.91001007439108
Epoch (UTC): 27 June 2022 02:43:20
Eccentricity: 0.0009744
inclination: 97.9439°
perigee height: 588 km
apogee height: 601 km
right ascension of ascending node: 295.1106°
argument of perigee: 59.8621°
revolutions per day: 14.91001007
mean anomaly at epoch: 300.3455°
orbit number at epoch: 43910

The dashed part of the orbit path shows where the satellite is in the earth's shadow,  

DLR